Regional Weather Roundup
Issued by NWS

Home | Current Version | Previous Version | Text Only | Print | Product List | Glossary On
Versions: 1 2 3 4 5 6 7 8 9 10 11 12 13 14 15 16 17 18 19 20 21 22 23 24 25 26 27 28 29 30 31 32 33 34 35 36 37 38 39 40 41 42 43 44 45 46 47 48 49 50
000
ASUS44 KOUN 271910
RWROK

WEATHER ROUNDUP FOR OKLAHOMA
NATIONAL WEATHER SERVICE NORMAN OK
200 PM CDT THU JUL 27 2017

NOTE: "FAIR" INDICATES FEW OR NO CLOUDS BELOW 12,000 FEET WITH NO
      SIGNIFICANT WEATHER AND/OR OBSTRUCTIONS TO VISIBILITY.

OKZ001>007-009>012-014-015-017-272000-
NORTHWEST OKLAHOMA AND THE PANHANDLE

CITY           SKY/WX    TMP DP  RH WIND       PRES   REMARKS
GAGE           PTSUNNY   88  70  55 N12       30.05F HX  93
GUYMON         CLOUDY    81  68  64 NE12      30.12F
ENID/WOODRING  PTSUNNY   90  73  58 NW12      29.94F HX  98
$$

OKZ016-021>023-033>039-044-045-272000-
SOUTHWEST OKLAHOMA

CITY           SKY/WX    TMP DP  RH WIND       PRES   REMARKS
LAWTON/REGL    SUNNY    100  65  31 W8        29.96F HX 103
LAWTON/FT SILL MOSUNNY   97  72  44 W7        29.95F HX 105
FREDERICK      SUNNY     98  65  33 VRB7      29.94F HX 101
CLINTON        MOSUNNY   93  68  43 NW13      30.01F HX  97
HOBART         SUNNY     99  66  33 W10       29.98F HX 103
ALTUS AFB      MOSUNNY   98  63  30 W5        29.97F HX 100
$$

OKZ018>020-024>031-272000-
CENTRAL OKLAHOMA

CITY           SKY/WX    TMP DP  RH WIND       PRES   REMARKS
OKLAHOMA CITY  CLOUDY    95  65  37 CALM      29.96F HX  97
OKC/WILEY POST CLOUDY    94  68  42 VRB6      29.95F HX  98
OKC/TINKER AFB MOSUNNY   97  66  35 W5        29.94F HX 100
STILLWATER     PTSUNNY   83  74  74 S7        29.94F
GUTHRIE        CLOUDY    89  70  53 SE3       29.94F HX  94
$$

OKZ008-013-054>072-272000-
NORTHEAST OKLAHOMA

CITY           SKY/WX    TMP DP  RH WIND       PRES   REMARKS
TULSA          CLOUDY    86  74  67 S9        29.91F HX  94
TULSA/JONES    CLOUDY    89  70  53 S7        29.92F HX  94
PONCA CITY     CLOUDY    81  71  71 SW5       29.94F
BARTLESVILLE   MOSUNNY   92  72  51 S7        29.93F HX  99
MUSKOGEE       CLOUDY    87  75  67 S6        29.96F HX  96
$$

OKZ032-040>043-046>053-073>077-272000-
SOUTH CENTRAL/SOUTHEAST OKLAHOMA

CITY           SKY/WX    TMP DP  RH WIND       PRES   REMARKS
ARDMORE/DWNTWN PTSUNNY   97  61  30 W9        29.96F HX  97
MCALESTER      CLOUDY    95  74  50 SW12G18   29.97F HX 105
$$





USA.gov is the U.S. government's official web portal to all federal, state and local government web resources and services.